Weather History for KJMS - July, 2013

Change the Weather History Date:

Wednesday, July 24, 2013

  Actual Average Record
Temperature  
Mean Temperature 68 °F 70 °F  
Max Temperature 84 °F 83 °F 109 °F (1931)
Min Temperature 52 °F 58 °F 37 °F (1916)
Degree Days  
Heating Degree Days 0 0  
Month to date heating degree days 7 19  
Since 1 June heating degree days 92 116  
Since 1 July heating degree days 7 19  
Cooling Degree Days 3 6  
Month to date cooling degree days 176 133  
Year to date cooling degree days 287 233  
Since 1 June cooling degree days 276 213  
Growing Degree Days 18 (Base 50)    
Moisture  
Dew Point 54 °F    
Average Humidity 63    
Maximum Humidity 93    
Minimum Humidity 32    
Precipitation  
Precipitation 0.00 in 0.09 in 1.05 in (1960)
Month to date precipitation 0.35 2.76  
Year to date precipitation 7.67 11.50  
Sea Level Pressure  
Sea Level Pressure 30.01 in    
Wind  
Wind Speed 7 mph (NW)    
Max Wind Speed 22 mph    
Max Gust Speed 31 mph    
Visibility 10 miles    
Events      
T = Trace of Precipitation, MM = Missing Value Source: NWS Daily Summary

Daily Weather History Graph

Daily Weather History Graph

Search for Another Location

Airport or City:

Trip Planner

Search our weather history database for the weather conditions in past years. The results will help you decide how hot, cold, wet, or windy it might be!

Date:

Astronomy

Jul. 24, 2013 Rise Set
Actual Time 6:05 AM CDT 9:16 PM CDT
Civil Twilight 5:28 AM CDT 9:53 PM CDT
Nautical Twilight 4:40 AM CDT 10:40 PM CDT
Astronomical Twilight 3:41 AM CDT 11:39 PM CDT
Moon 10:07 PM CDT (7/24) 8:39 AM CDT (7/24)
Length of Visible Light 16h 24m
Length of Day
15h 11m
Waning Gibbous, 94% of the Moon is Illuminated
Jul 24
Waning Gibbous
Jul 29
Last Quarter
Aug 6
New
Aug 14
First Quarter
Aug 20
Full

Hourly Weather History & Observations

Time (CDT) Temp. Heat Index Dew Point Humidity Pressure Visibility Wind Dir Wind Speed Gust Speed Precip Events Conditions
12:56 AM 60.1 °F - 55.9 °F 86% 30.06 in 10.0 mi NE 3.5 mph - N/A   Overcast
1:56 AM 59.0 °F - 55.9 °F 90% 30.07 in 10.0 mi Calm Calm - N/A   Overcast
2:56 AM 57.0 °F - 53.1 °F 87% 30.06 in 10.0 mi Calm Calm - N/A   Clear
3:56 AM 55.0 °F - 52.0 °F 89% 30.06 in 10.0 mi Calm Calm - N/A   Clear
4:56 AM 53.1 °F - 50.0 °F 89% 30.06 in 10.0 mi Calm Calm - N/A   Clear
5:56 AM 53.1 °F - 51.1 °F 93% 30.06 in 10.0 mi Calm Calm - N/A   Overcast
6:56 AM 55.0 °F - 53.1 °F 93% 30.06 in 9.0 mi Calm Calm - N/A   Scattered Clouds
7:56 AM 60.1 °F - 55.9 °F 86% 30.06 in 10.0 mi Calm Calm - N/A   Partly Cloudy
8:56 AM 68.0 °F - 55.9 °F 65% 30.05 in 10.0 mi WSW 5.8 mph - N/A   Mostly Cloudy
9:56 AM 72.0 °F - 57.0 °F 59% 30.05 in 10.0 mi SW 5.8 mph - N/A   Partly Cloudy
10:56 AM 75.0 °F - 57.0 °F 53% 30.03 in 10.0 mi West 6.9 mph - N/A   Clear
11:56 AM 78.1 °F - 57.0 °F 48% 30.01 in 10.0 mi West 10.4 mph - N/A   Scattered Clouds
12:56 PM 79.0 °F - 55.9 °F 45% 30.00 in 10.0 mi NW 6.9 mph - N/A   Partly Cloudy
1:56 PM 82.0 °F 81.3 °F 54.0 °F 38% 29.98 in 10.0 mi WNW 8.1 mph 20.7 mph N/A   Partly Cloudy
2:56 PM 82.9 °F 81.9 °F 54.0 °F 37% 29.97 in 10.0 mi West 16.1 mph 23.0 mph N/A   Scattered Clouds
3:56 PM 84.0 °F 82.9 °F 55.0 °F 37% 29.95 in 10.0 mi West 12.7 mph 23.0 mph N/A   Clear
4:56 PM 84.0 °F - 51.1 °F 32% 29.94 in 10.0 mi NNW 15.0 mph 27.6 mph N/A   Clear
5:56 PM 82.0 °F - 51.1 °F 34% 29.94 in 10.0 mi NW 19.6 mph 26.5 mph N/A   Clear
6:56 PM 81.0 °F - 51.1 °F 35% 29.94 in 10.0 mi NNW 16.1 mph 23.0 mph N/A   Clear
7:56 PM 78.1 °F - 52.0 °F 40% 29.94 in 10.0 mi NNW 11.5 mph - N/A   Clear
8:56 PM 72.0 °F - 55.9 °F 57% 29.94 in 10.0 mi NNW 4.6 mph - N/A   Clear
9:56 PM 66.0 °F - 55.0 °F 68% 29.96 in 10.0 mi NNW 5.8 mph - N/A   Clear
10:56 PM 63.0 °F - 55.0 °F 75% 29.97 in 10.0 mi North 5.8 mph - N/A   Clear
11:56 PM 61.0 °F - 55.0 °F 81% 29.98 in 10.0 mi NW 4.6 mph - N/A   Clear